Bull Shoals Lake Weather Center

Moon Phase Calendar



Bull Shoals Lake Water Level
Online Cameras

 


      

Current Conditions in Bull Shoals
1/27/2022 8:12:45 PM

34°F
Feels Like 30
Clouds
Humidity
88%
Pressure
30.36"
Wind
4.6 mph (NW)
Dew Point
31°F
UV Index
0/10 (Low)
Visibility
6 mi

Hourly Forecast

Date & Time Thu, Jan 27
8:00 PM
Thu, Jan 27
9:00 PM
Thu, Jan 27
10:00 PM
Thu, Jan 27
11:00 PM
Fri, Jan 28
12:00 AM
Fri, Jan 28
1:00 AM
Fri, Jan 28
2:00 AM
Fri, Jan 28
3:00 AM
Fri, Jan 28
4:00 AM
Fri, Jan 28
5:00 AM
Fri, Jan 28
6:00 AM
Fri, Jan 28
7:00 AM
Fri, Jan 28
8:00 AM
Fri, Jan 28
9:00 AM
Fri, Jan 28
10:00 AM
Fri, Jan 28
11:00 AM
Fri, Jan 28
12:00 PM
Fri, Jan 28
1:00 PM
Fri, Jan 28
2:00 PM
Fri, Jan 28
3:00 PM
Fri, Jan 28
4:00 PM
Fri, Jan 28
5:00 PM
Fri, Jan 28
6:00 PM
Fri, Jan 28
7:00 PM
Fri, Jan 28
8:00 PM
Fri, Jan 28
9:00 PM
Fri, Jan 28
10:00 PM
Fri, Jan 28
11:00 PM
Sat, Jan 29
12:00 AM
Sat, Jan 29
1:00 AM
Sat, Jan 29
2:00 AM
Sat, Jan 29
3:00 AM
Sat, Jan 29
4:00 AM
Sat, Jan 29
5:00 AM
Sat, Jan 29
6:00 AM
Sat, Jan 29
7:00 AM
Sat, Jan 29
8:00 AM
Sat, Jan 29
9:00 AM
Sat, Jan 29
10:00 AM
Sat, Jan 29
11:00 AM
Sat, Jan 29
12:00 PM
Sat, Jan 29
1:00 PM
Sat, Jan 29
2:00 PM
Sat, Jan 29
3:00 PM
Sat, Jan 29
4:00 PM
Sat, Jan 29
5:00 PM
Sat, Jan 29
6:00 PM
Sat, Jan 29
7:00 PM
Condition
Clouds

Clouds

Clouds

Clouds

Clouds

Clouds

Clouds

Clouds

Clouds

Clouds

Clouds

Clouds

Clouds

Clouds

Clouds

Clouds

Clouds

Clouds

Clouds

Clouds

Clouds

Clouds

Clouds

Clear

Clear

Clear

Clear

Clear

Clear

Clear

Clear

Clear

Clear

Clear

Clear

Clear

Clear

Clear

Clouds

Clouds

Clouds

Clear

Clear

Clear

Clear

Clear

Clear

Clear
Temperature 34°F33°F32°F30°F29°F28°F28°F27°F26°F26°F25°F24°F26°F30°F33°F36°F37°F38°F39°F38°F37°F34°F29°F27°F26°F25°F24°F24°F24°F24°F24°F24°F24°F24°F24°F24°F26°F31°F36°F41°F46°F50°F52°F53°F51°F45°F38°F36°F
Feels Like 30°F29°F28°F26°F25°F24°F24°F22°F21°F21°F20°F19°F21°F23°F26°F28°F30°F31°F31°F31°F30°F28°F24°F22°F22°F25°F24°F24°F24°F24°F24°F24°F24°F24°F20°F20°F22°F26°F32°F37°F42°F46°F49°F50°F48°F41°F34°F33°F
Cloudiness 100%94%82%68%62%99%100%100%100%100%89%14%14%14%28%42%51%100%100%100%95%78%65%0%0%0%0%0%0%0%0%0%0%0%1%6%6%6%19%16%15%6%3%4%4%3%3%0%
Visibility 6 mi6 mi6 mi6 mi6 mi6 mi6 mi6 mi6 mi6 mi6 mi6 mi6 mi6 mi6 mi6 mi6 mi6 mi6 mi6 mi6 mi6 mi6 mi6 mi6 mi6 mi6 mi6 mi6 mi6 mi6 mi6 mi6 mi6 mi6 mi6 mi6 mi6 mi6 mi6 mi6 mi6 mi6 mi6 mi6 mi6 mi6 mi6 mi
Precipitation 0%0%0%0%0%0%0%0%0%0%0%0%0%0%0%0%0%0%0%0%0%0%0%0%0%0%0%0%0%0%0%0%0%0%0%0%0%0%0%0%0%0%0%0%0%0%0%0%
Humidity 88%89%90%91%90%88%88%92%94%95%95%95%90%73%67%61%53%48%45%44%47%51%64%68%69%69%68%67%67%68%69%69%69%70%71%73%69%59%53%48%44%40%36%37%45%57%71%75%
Dew Point 31°F31°F30°F28°F27°F25°F25°F24°F24°F24°F23°F23°F23°F22°F22°F23°F22°F20°F18°F18°F19°F18°F17°F17°F16°F15°F15°F14°F14°F14°F14°F14°F15°F15°F15°F16°F17°F18°F20°F23°F25°F26°F26°F27°F30°F30°F29°F29°F
Pressure 30.36"30.36"30.36"30.39"30.39"30.39"30.39"30.42"30.39"30.42"30.42"30.45"30.45"30.45"30.45"30.45"30.42"30.39"30.39"30.39"30.39"30.39"30.42"30.42"30.42"30.42"30.42"30.42"30.42"30.42"30.39"30.36"30.36"30.36"30.33"30.36"30.36"30.33"30.3"30.27"30.21"30.15"30.09"30.06"30.03"30.03"30.06"30.06"
Wind Speed 4.6 mph4.4 mph4.5 mph4.2 mph3.9 mph3.9 mph4 mph4 mph4 mph3.7 mph4.3 mph4 mph4.2 mph7.4 mph8.2 mph9.6 mph10.9 mph11.9 mph12.1 mph12 mph9.7 mph7.6 mph4.3 mph4.1 mph3.3 mph2.6 mph1.6 mph0.2 mph1.3 mph1.9 mph1.3 mph2.2 mph2.3 mph2.6 mph3 mph3.4 mph3 mph4.5 mph5.8 mph6.2 mph7 mph7.3 mph7.8 mph8.5 mph7.9 mph6.8 mph5.1 mph4.2 mph
Wind
Direction
325°
NW
323°
NW
314°
NW
312°
NW
310°
NW
310°
NW
305°
NW
302°
WNW
299°
WNW
292°
WNW
301°
WNW
298°
WNW
308°
NW
332°
NNW
324°
NW
319°
NW
320°
NW
322°
NW
321°
NW
323°
NW
327°
NNW
329°
NNW
327°
NNW
336°
NNW
347°
NNW
350°
N
11°
N
68°
ENE
168°
SSE
184°
S
151°
SSE
162°
SSE
150°
SSE
134°
SE
143°
SE
123°
ESE
134°
SE
152°
SSE
167°
SSE
176°
S
190°
S
198°
SSW
205°
SSW
207°
SSW
199°
SSW
194°
SSW
195°
SSW
189°
S

Daily Forecast

Date High Low Precip. Humidity
Today
Jan 27

Snow
43 °F
27 °F
92%
63%
Friday
Jan 28

Clouds
39 °F
24 °F
0%
53%
Saturday
Jan 29

Clouds
53 °F
24 °F
0%
44%
Sunday
Jan 30

Clouds
53 °F
31 °F
0%
39%
Monday
Jan 31

Clear
63 °F
33 °F
0%
49%
Tuesday
Feb 1

Rain
52 °F
49 °F
100%
96%
Wednesday
Feb 2

Snow
50 °F
27 °F
100%
88%
Thursday
Feb 3

Snow
24 °F
14 °F
100%
67%
Friday
Feb 4

Clear
25 °F
4 °F
0%
47%
Saturday
Feb 5

Clouds
33 °F
5 °F
0%
45%
Sunday
Feb 6

Clouds
33 °F
10 °F
0%
61%
Monday
Feb 7

Snow
37 °F
23 °F
100%
78%
Tuesday
Feb 8

Snow
37 °F
25 °F
100%
86%
Wednesday
Feb 9

Clouds
21 °F
11 °F
0%
64%
Thursday
Feb 10

Clear
33 °F
7 °F
0%
61%
Friday
Feb 11

Clear
45 °F
18 °F
0%
59%

Temperature 8-14 Day Outlook



Precipitation 8-14 Day Outlook




Quick Links
Bull Shoals Lake News
Bull Shoals Lake Photos
Bull Shoals Lake Videos




About Us
Contact Us
Site Map
Search Site
Advertise With Us
   
BullShoals.USLakes.info
THE BULL SHOALS LAKE WEBSITE

Copyright 2022, Lakes Online
Privacy    |    Legal